Terminal Aerodrome Forecast
Issued by NWS

Home | Current Version | Previous Version | Text Only | Print | Product List | Glossary On
Versions: 1 2 3 4 5 6 7 8 9 10 11 12 13 14 15 16 17 18 19 20 21 22
000
FTUS41 KOKX 042320
TAFHPN
TAF
KHPN 042320Z 0500/0524 20009KT P6SM FEW120
     FM050600 VRB04KT P6SM FEW120
     FM051200 27007KT P6SM FEW050 BKN120
     FM051500 32005KT P6SM VCSH BKN050
      AMD NOT SKED=

USA.gov is the U.S. government's official web portal to all federal, state and local government web resources and services.